星链-36847(STARLINK-36847)

导读

STARLINK-36847是美国于2026年2月22日发射的星链卫星,隶属于SpaceX公司打造的星链星座系统。星链计划旨在构建全球卫星互联网,为全球偏远地区、海洋等网络覆盖薄弱区域提供高速宽带服务,该卫星将进一步扩容星链网络,提升系统服务能力与覆盖范围。

Basic Information
目录编号:
67910
目录名称:
STARLINK-36847
国际标识:
2026-036G
轨道中心:
EARTH
卫星名称:
星链-36847
卫星全名:
星链-36847(STARLINK-36847)
卫星状态:
在轨 (已飞行195 天)
发射日期:
2026-02-22 UTC
国别 :
美国 (US)
星等 :
--
Orbit Information
数据来源 国际轨道数据 AOE轨道数据
星历时间 2026-09-04T14:41:37+0800
1天前
查看轨道信息
2026-09-03T08:00:00+0800
2天前
查看轨道信息
半长轴 6861.148km 6861.178km
偏心率 0.0002285 0.0001727
轨道倾角 43.002° 43.003°
近地点辐角 287.319° 266.267°
升交点赤经 316.813° 324.035°
平近点角 72.741° 252.460°
近地点 481.443km 481.856km
远地点 484.579km 484.226km
周期 94.266分钟 94.267分钟
每日圈数 15.275929 15.27583
Detailed Information
固有亮度:
5
最大亮度:
2.5
卫星平台:
Starlink V1.0
覆盖范围:
全球
运营商:
太空探索技术公司
运营商所在国:
美国
制造商(研发单位):
太空探索技术公司
制造商所在国:
美国
使用方式:
暂无
Satellite Introduction
Starlink 计划是 SpaceX 推出的全球卫星互联网项目,通过发射低轨道卫星,为全球尤其是偏远地区提供高速、低延迟的互联网服务。自 2019 年起,Starlink 已部署数千颗卫星,旨在缩小全球数字鸿沟,推动互联网普及。该项目还为军事、航空等行业提供通信支持,带来广泛经济效益。
2D Orbit Map
3D Orbit Map
Orbit Altitude Analysis Chart
Orbit Inclination Analysis Chart
Orbit Comprehensive Analysis Chart
View Comprehensive Chart
Conjunction Data List
Event ID Objects TCA Miss Dist (km) Collision Risk Probability Collision Risk Index (CRI) Action
CDM_260906-185205-947706-791022
2026-09-06T
18:52:57+0000
0.980 km
远距离
1.822124E-5 中风险 0.6
CDM_260906-014505-962106-791021
2026-09-06T
01:45:21+0000
1.047 km
极远距离
1.75747E-5 中风险 0.6
CDM_260906-171805-947706-791022
2026-09-06T
17:18:47+0000
1.374 km
极远距离
5.700984E-6 低风险 0.5
CDM_260906-201806-346206-791021
2026-09-06T
20:18:29+0000
1.045 km
极远距离
4.731557E-6 低风险 0.49
CDM_260907-142905-947706-791021
2026-09-07T
14:29:53+0000
1.581 km
极远距离
3.630837E-6 低风险 0.46
CDM_260907-125505-947706-791021
2026-09-07T
12:55:43+0000
1.615 km
极远距离
3.401033E-6 低风险 0.46
CDM_260906-181305-962106-791021
2026-09-06T
18:13:59+0000
1.804 km
极远距离
2.944621E-6 低风险 0.44
CDM_260906-175706-346206-791021
2026-09-06T
17:57:16+0000
1.277 km
极远距离
2.435976E-6 低风险 0.43
CDM_260906-202705-947706-791022
2026-09-06T
20:27:06+0000
2.090 km
极远距离
1.700914E-6 低风险 0.4
CDM_260906-031905-962106-791021
2026-09-06T
03:19:30+0000
2.264 km
极远距离
1.686008E-6 低风险 0.4